EHI
0 0 0 0 0 0 0 0 0 0 0 0 0 0 0 0 0 0 0 0 0 0 0 0 0 0 0 0 0 0 0 0 0 0 0 0 0 0
0 0 0 0 0 0 0 0 0 0 0 0 0 0 0 0 0 0 0 0 0 0 0 0 0 0 0 0 0 0 0 0 0 0 0 0 0 0
0 0 0 0 0 0 0 0 0 0 0 0 0 0 0 0 0 0 0 0 0 0 0 0 0 0 0 0 0 0 0 0 0 0 0 0 0 0
0 0 0 0 0 0 0 0 0 0 0 0 0 0 0 0 0 0 0 0 0 0 0 0 0 0 0 0 0 0 0 0 0 0 0 0 0 0
0 0 0 0 0 0 0 0 0 0 0 0 0 0 0 0 0 0 0 0 0 0 0 0 0 0 0 0 0 0 0 0 0 0 0 0 0 0
0 0 0 0 0 0 0 0 0 0 0 0 0 0 0 0 0 0 0 0 0 0 0 0 0 0 0 0 0 0 0 0 0 0 0 0 0 0
0 0 0 0 0 0 0 0 0 0 0 0 0 0 0 0 0 0 0 0 0 0 0 0 0 0 0 0 0 0 0 0 0 0 0 0 0 0
0 0 0 0 0 0 0 0 0 0 0 0 0 0 0 0 0 0 0 0 0 0 0 0 0 0 0 0 0 0 0 0 0 0 0 0 0 0
0 0 0 0 0 0 0 0 0 0 0 0 0 0 0 0 0 0 0 0 0 0 0 0 0 0 0 0 0 0 0 0 0 0 0 0 0 0
0 0 0 0 0 0 0 0 0 0 0 0 0 0 0 0 0 0 0 0 0 0 0 0 0 0 0 0 0 0 0 0 0 0 0 0 0 0
0 0 0 0 0 0 0 0 0 0 0 0 0 0 0 0 0 0 0 0 0 0 0 0 0 0 0 0 0 0 0 0 0 0 0 0 0 0
0 0 0 0 0 0 0 0 0 0 0 0 0 0 0 0 0 0 0 0 0 0 0 0 0 0 0 0 0 0 0 0 0 0 0 0 0 0
0 0 0 0 0 0 0 0 0 0 0 0 0 0 0 0 0 0 0 0 0 0 0 0 0 0 0 0 0 0 0 0 0 0 0 0 0 0
0 0 0 0 0 0 0 0 0 0 0 0 0 0 0 0 0 0 0 0 0 0 0 0 0 0 0 0 0 0 0 0 0 0 0 0 0 0
0 0 0 0 0 0 0 0 0 0 0 0 0 0 0 0 0 0 0 0 0 0 0 0 0 0 0 0 0 0 0 0 0 0 0 0 0 0
0 0 0 0 0 0 0 0 0 0 0 0 0 0 0 0 0 0 0 0 0 0 0 0 0 0 0 0 0 0 0 0 0 0 0 0 0 0
0 0 0 0 0 0 0 0 0 0 0 0 0 0 0 0 0 0 0 0 0 0 0 0 0 0 0 0 0 0 0 0 0 0 0 0 0 0
0 0 0 0 0 0 0 0 0 0 0 0 0 0 0 0 0 0 0 0 0 0 0 0 0 0 0 0 0 0 0 0 0 0 0 0 0 0
0 0 0 0 0 0 0 0 0 0 0 0 0 0 0 0 0 0 0 0 0 0 0 0 0 0 0 0 0 0 0 0 0 0 0 0 0 0
0 0 0 0 0 0 0 0 0 0 0 0 0 0 0 0 0 0 0 0 0 0 0 0 0 0 0 0 0 0 0 0 0 0 0 0 0 0
0 0 0 0 0 0 0 0 0 0 0 0 0 0 0 0 0 0 0 0 0 0 0 0 0 0 0 0 0 0 0 0 0 0 0 0 0 0
0 0 0 0 0 0 0 0 0 0 0 0 0 0 0 0 0 0 0 0 0 0 0 0 0 0 0 0 0 0 0 0 0 0 0 0 0 0
0 0 0 0 0 0 0 0 0 0 0 0 0 0 0 0 0 0 0 0 0 0 0 0 0 0 0 0 0 0 0 0 0 0 0 0 0 0
Wind_Speed
4 4 3 2 2 2 1 2 3 4 5 3 1 1 1 1 3 3 4 8 10 10 10 10 9 10 10 10 10 10 9 9 10 10 11 12 12 12
3 4 3 2 2 2 2 2 2 3 4 3 2 2 2 3 4 3 4 9 10 11 11 10 10 10 10 10 9 9 9 9 9 10 11 11 12 12
3 4 4 3 3 3 2 2 2 2 4 4 3 2 2 3 4 3 4 4 5 11 11 10 10 9 9 9 8 9 9 10 10 10 11 11 12 12
4 4 4 3 3 3 3 3 3 3 3 5 4 3 3 4 4 5 4 4 5 9 10 10 9 10 9 8 8 9 9 9 10 10 10 11 12 12
4 5 4 4 4 3 3 3 2 2 2 3 5 4 3 3 4 4 5 4 5 7 8 8 9 9 8 9 9 8 8 9 10 10 10 10 11 12
3 4 4 4 4 3 3 3 2 2 3 3 4 4 3 3 2 4 4 4 4 4 5 6 7 8 8 9 9 9 9 9 9 9 9 10 10 10
3 3 3 3 4 4 3 3 2 2 3 3 4 3 3 3 3 3 4 5 4 3 3 4 4 3 4 6 8 9 9 9 10 10 9 9 9 9
3 2 2 3 3 5 5 5 5 4 4 4 4 4 5 4 4 3 3 4 5 2 3 5 3 3 3 3 7 9 9 10 9 9 9 8 9 9
2 2 1 2 2 2 3 5 5 7 7 5 5 5 5 4 4 4 4 4 5 4 3 4 2 3 3 4 8 8 9 9 9 9 9 8 8 9
1 2 2 2 2 2 2 2 3 4 5 4 4 5 4 4 4 4 4 4 4 3 2 3 2 3 4 3 6 7 8 9 9 8 8 8 8 9
1 1 1 1 3 2 1 2 3 4 5 6 7 6 7 7 5 2 2 3 4 3 1 2 2 3 3 3 4 8 9 9 8 8 8 8 9 8
0 1 2 2 2 2 1 1 3 4 3 3 4 4 4 5 5 3 3 3 3 3 2 1 2 2 3 3 3 4 5 6 8 8 8 8 8 5
1 1 1 2 2 3 2 2 3 4 2 2 3 2 2 2 2 1 1 2 3 4 2 1 2 1 2 3 4 3 3 4 4 4 6 8 9 7
1 1 1 2 2 3 3 3 4 4 2 2 2 2 2 2 2 2 2 2 3 4 4 3 2 2 2 4 4 3 4 3 3 3 3 6 6 8
1 2 2 2 2 1 2 3 3 1 1 2 2 2 2 2 2 1 2 2 2 2 2 2 2 2 2 3 4 4 4 4 2 2 3 3 3 4
1 0 1 2 2 1 2 2 1 1 1 2 2 2 1 1 1 1 1 1 2 2 2 2 2 2 2 3 3 4 3 3 3 3 4 4 3 2
1 1 1 1 1 1 1 1 1 2 2 1 1 1 2 2 2 1 1 1 1 2 3 2 2 2 2 3 3 3 3 3 3 3 3 4 4 2
2 1 0 1 1 1 1 2 1 1 2 1 1 1 1 2 2 1 1 1 1 1 2 2 2 2 2 2 2 2 2 2 3 3 2 3 4 4
1 0 0 1 1 1 1 1 2 2 1 1 1 1 1 2 2 1 1 1 1 2 2 2 2 2 3 4 4 2 2 3 3 3 3 3 4 4
1 0 1 1 1 1 1 1 1 2 1 1 1 1 1 1 2 2 1 2 2 2 2 2 2 2 2 2 3 4 4 2 2 3 3 3 3 4
1 1 1 1 1 1 1 1 1 1 1 1 1 2 1 1 2 2 2 3 2 2 2 2 2 3 1 1 1 3 3 4 4 3 2 3 3 3
1 1 1 1 1 1 1 1 1 1 1 1 1 1 1 2 2 2 2 2 2 2 2 2 2 2 1 1 2 3 3 4 5 6 5 4 2 2
1 1 1 1 1 1 1 1 2 2 2 2 2 1 1 1 2 2 2 1 1 1 1 2 2 2 2 1 1 2 3 4 3 4 4 6 7 5
Wind_Direction
205 208 214 220 222 226 226 211 223 270 282 267 266 253 259 261 273 272 271 290 297 296 291 288 288 289 290 293 294 296 295 298 297 294 293 295 297 301
206 206 217 215 217 219 223 235 232 238 267 281 276 288 289 296 289 276 275 295 292 291 289 285 286 285 287 289 290 295 294 294 294 292 292 294 297 301
215 209 220 213 211 220 223 228 241 236 259 283 291 288 274 277 285 276 273 272 279 286 286 287 286 285 286 286 289 290 293 292 291 290 291 293 296 298
216 209 217 216 218 222 221 229 238 237 243 272 288 291 274 269 276 281 284 282 276 286 285 287 288 286 287 286 287 291 293 295 294 293 293 293 294 294
219 214 212 209 226 229 223 230 243 257 254 258 276 285 285 286 291 291 288 279 283 287 288 287 286 288 291 292 292 293 295 295 294 294 294 293 293 295
220 220 219 213 222 229 234 228 233 249 258 259 270 282 282 289 291 287 293 285 285 289 291 292 287 286 291 296 294 294 296 295 295 293 291 291 293 296
219 222 221 222 235 242 248 238 233 244 257 262 268 277 277 286 282 282 287 297 287 277 293 286 280 269 277 290 293 295 297 296 296 293 291 293 295 297
218 220 207 215 232 245 258 260 251 243 245 253 261 262 267 274 279 281 285 299 295 293 295 289 282 277 278 272 297 303 301 298 297 295 294 296 298 299
207 207 220 226 256 248 260 270 272 270 263 258 260 263 265 271 280 276 276 279 274 286 297 283 285 284 290 297 301 304 307 307 304 301 300 301 303 303
207 221 204 212 239 255 260 283 287 283 279 273 259 263 265 264 263 268 267 279 278 283 283 278 294 293 303 299 302 310 313 312 310 307 308 310 312 311
235 247 219 216 242 269 273 287 297 297 301 290 282 275 277 278 274 270 281 290 287 287 280 267 288 311 309 302 315 321 318 317 318 317 318 318 318 317
257 260 245 252 248 281 270 256 280 292 311 316 304 293 285 278 275 251 241 259 277 279 263 258 277 329 317 303 313 323 322 321 322 322 322 322 323 320
252 273 259 259 269 284 290 260 272 297 307 304 303 304 306 294 292 288 264 244 254 262 264 267 270 279 270 298 310 313 317 320 320 317 321 321 322 323
254 273 268 281 292 298 299 293 300 307 308 302 299 300 300 300 301 306 301 286 261 256 264 263 258 260 276 291 293 305 321 317 318 318 316 316 322 326
286 282 310 326 323 316 317 320 323 317 303 294 294 297 302 300 307 319 326 313 306 297 289 275 262 267 267 271 282 295 311 313 313 323 321 320 317 318
323 310 344 348 3 5 343 341 341 315 297 287 301 303 315 315 316 320 321 335 340 334 330 323 304 285 286 283 274 289 301 300 312 320 320 315 312 310
32 52 38 19 19 17 11 2 351 339 320 305 312 322 327 320 316 330 325 335 324 312 329 339 345 324 286 280 282 285 295 300 302 319 324 323 322 320
65 76 15 351 332 336 340 335 329 322 313 313 318 311 305 310 313 323 327 322 315 312 315 317 337 345 347 341 300 278 303 313 318 321 326 328 327 334
69 87 300 301 311 325 323 314 313 318 328 336 333 318 318 318 315 317 318 317 313 308 310 318 328 337 338 334 327 334 320 319 322 328 330 322 315 319
25 310 285 285 299 308 308 315 324 333 335 332 329 323 317 311 312 309 305 308 310 314 320 325 322 320 307 299 303 316 324 308 310 321 329 330 317 313
322 311 302 299 299 292 293 307 307 306 314 313 305 306 305 302 300 301 298 300 304 304 310 314 313 329 336 341 326 324 331 334 323 311 320 329 332 336
289 298 306 306 301 295 296 299 298 301 304 298 296 296 298 291 288 295 297 302 305 306 313 321 329 346 354 338 321 321 328 341 354 356 349 334 326 324
278 286 292 296 295 287 280 281 281 287 290 292 292 288 286 290 287 282 287 288 305 323 336 338 343 353 357 341 323 325 330 335 347 0 359 353 348 338